Regional Weather Roundup
Issued by NWS New Orleans/Baton Rouge, LA

Home | Current Version | Previous Version | Graphics & Text | Print | Product List | Glossary On
Versions: 1 2 3 4 5 6 7 8 9 10 11 12 13 14 15 16 17 18 19 20 21 22 23 24 25 26 27 28 29 30 31 32 33 34 35 36 37 38 39 40 41 42 43 44 45 46 47 48 49 50
785
ASUS44 KLIX 211605
RWRLIX
NEW ORLEANS REGIONAL WEATHER ROUNDUP
NATIONAL WEATHER SERVICE NEW ORLEANS LA
1100 AM CDT TUE OCT 21 2014

NOTE: "FAIR" INDICATES FEW OR NO CLOUDS BELOW 12,000 FEET WITH NO
      SIGNIFICANT WEATHER AND/OR OBSTRUCTIONS TO VISIBILITY.
      SKY/WX - SKY CONDITION AND SIGNIFICANT WEATHER.
      TMP - AIR TEMPERATURE.     DP    - DEWPOINT TEMPERATURE.
      RH  - RELATIVE HUMIDITY.   PRES  - PRESSURE.
      HI  - HEAT INDEX.          WCI   - WIND CHILL INDEX.

*  THESE STATIONS ARE NOT NWS OR FAA STATIONS AND ARE NOT UNDER
   NWS QUALITY CONTROL.

LAZ038-040-048-061>063-065>067-069-211700-
SOUTHEAST LOUISIANA

CITY           SKY/WX    TMP DP  RH WIND       PRES   REMARKS
N.O. AUDUBON   NOT AVBL
N.O. INTL ARPT MOSUNNY   74  54  49 NE13      30.06S
N.O. LAKEFRONT SUNNY     73  54  51 NE10      30.07S
N.O. DOWNTOWN*   N/A     73  50  43 N8        30.07S
SLIDELL        SUNNY     72  54  53 NE9       30.06F
BATON ROUGE    SUNNY     73  55  53 NE6       30.08S
BOOTHVILLE     SUNNY     76  60  57 NE9       30.05R
BELLE CHASSE   SUNNY     76  53  44 NE10      30.06S
BOGALUSA*        N/A     75  53  45 NE7       30.09F
NEW ROADS*       N/A     72  53  50 N8        30.08F
GONZALES*        N/A     73  55  53 NE6       30.07S
HAMMOND*       SUNNY     75  50  41 N8        30.08F
HOUMA*         SUNNY     73  57  56 N9        30.06S
PORT FOURCHON* SUNNY     75  63  64 NE15      30.07F

$$

MSZ070-080>082-211700-
SOUTHERN MISSISSIPPI

CITY           SKY/WX    TMP DP  RH WIND       PRES   REMARKS
MCCOMB         SUNNY     72  50  45 CALM      30.09F
GULFPORT       SUNNY     74  52  46 N8        30.05F
BILOXI         SUNNY     73  53  49 NE8       30.06S
PASCAGOULA     SUNNY     74  53  48 N6        30.06F
STENNIS ARPT*  SUNNY     73  48  40 NE9       30.07

$$

COASTAL OBSERVATIONS
LAKE AND NEARSHORE STATIONS

STATION/POSITION TIME  TEMP    WIND        PRES    WAVE
                       AIR SEA DIR/SP/G            HT/PER
                 (UTC) (F)     (DEG/KT/KT) (MB)    (FT/S)
PASCAGOULA       1600   73      30/  6/ 10 1017.2
WAVELAND YACHT   1600   70      40/  9/ 11 1017.2
GRAND ISLE       1600   74 76   50/  9/ 15 1017.9
SOUTHWEST PASS   1600   77 83              1017.2
NEW CANAL        1600   69 71   60/  9/ 11 1018.5
SHELL BEACH      1600   71 68   40/ 10/ 11 1017.7

OFFSHORE STATIONS

STATION/POSITION TIME  TEMP    WIND        PRES    WAVE
                       AIR SEA DIR/SP/G            HT/PER
                 (UTC) (F)     (DEG/KT/KT) (MB)    (FT/S)
64 S DAUPHIN ISL 1508   74 80   40/ 14/ 17 1017.5    2/ 5

$$




USA.gov is the U.S. government's official web portal to all federal, state and local government web resources and services.